Lulea-Kallax,

12:06 PM CET on January 18, 2017 (GMT +0100)
Lulea-Kallax

Weather History for ESPA - March, 2013

Change the Weather History Date:

Sunday, March 10, 2013

  Actual Average Record
Temperature  
Mean Temperature 17 °F -  
Max Temperature 29 °F - - ()
Min Temperature 5 °F - - ()
Degree Days  
Heating Degree Days 48    
Moisture  
Dew Point 10 °F    
Average Humidity 66    
Maximum Humidity 93    
Minimum Humidity 45    
Precipitation  
Precipitation 0.00 in - - ()
Sea Level Pressure  
Sea Level Pressure 29.92 in    
Wind  
Wind Speed 6 mph ()    
Max Wind Speed 13 mph    
Max Gust Speed -    
Visibility 6.7 miles    
Events Snow    
T = Trace of Precipitation, MM = Missing Value Source: Averaged Metar Reports

Daily Weather History Graph

Daily Weather History Graph

Search for Another Location

Airport or City:

Trip Planner

Search our weather history database for the weather conditions in past years. The results will help you decide how hot, cold, wet, or windy it might be!

Date:

Astronomy

Mar. 10, 2013 Rise Set
Actual Time 6:09 AM CET 5:15 PM CET
Civil Twilight 5:19 AM CET 6:05 PM CET
Nautical Twilight 4:20 AM CET 7:05 PM CET
Astronomical Twilight 3:16 AM CET 8:09 PM CET
Moon 5:21 AM CET (3/10) 3:50 PM CET (3/10)
Length of Visible Light 12h 46m
Length of Day
11h 06m
Waning Crescent, 2% of the Moon is Illuminated
Mar 10
Waning Crescent
Mar 11
New
Mar 19
First Quarter
Mar 27
Full
Apr 3
Last Quarter

Hourly Weather History & Observations

Time (CET) Temp. Windchill Dew Point Humidity Pressure Visibility Wind Dir Wind Speed Gust Speed Precip Events Conditions
12:00 AM 6 °F - -3 °F 51% 30.13 in 31 mi WNW 4.5 mph - -  
12:20 AM 5.0 °F -8.1 °F -4.0 °F 66% 30.09 in 6.2 mi West 8.1 mph - N/A   Unknown
12:50 AM 6.8 °F -5.9 °F -4.0 °F 61% 30.09 in 6.2 mi West 8.1 mph - N/A   Unknown
1:00 AM 8 °F - -3 °F 47% 30.11 in 31 mi West 2.2 mph - -  
1:20 AM 8.6 °F -5.5 °F -2.2 °F 62% 30.09 in 6.2 mi West 10.4 mph - N/A   Unknown
1:50 AM 8.6 °F -3.7 °F -2.2 °F 62% 30.06 in 6.2 mi West 8.1 mph - N/A   Unknown
2:00 AM 6 °F - -4 °F 50% 30.09 in 31 mi WNW 6.7 mph - -  
2:20 AM 6.8 °F -6.9 °F -4.0 °F 61% 30.06 in 6.2 mi West 9.2 mph - N/A   Unknown
2:50 AM 6.8 °F -5.9 °F -2.2 °F 67% 30.06 in 6.2 mi West 8.1 mph - N/A   Unknown
3:00 AM 6 °F - -3 °F 52% 30.07 in 31 mi WNW 2.2 mph - -  
3:20 AM 6.8 °F -4.8 °F -4.0 °F 61% 30.04 in 6.2 mi West 6.9 mph - N/A   Unknown
3:50 AM 6.8 °F -2.0 °F -2.2 °F 67% 30.04 in 6.2 mi West 4.6 mph - N/A   Scattered Clouds
4:20 AM 6.8 °F -2.0 °F -2.2 °F 67% 30.01 in 6.2 mi West 4.6 mph - N/A   Unknown
4:50 AM 6.8 °F -3.5 °F -2.2 °F 67% 30.01 in 6.2 mi West 5.8 mph - N/A   Scattered Clouds
5:00 AM 6 °F - -3 °F 53% 30.02 in 31 mi Calm Calm - -  
5:20 AM 6.8 °F -3.5 °F -2.2 °F 67% 29.98 in 6.2 mi WNW 5.8 mph - N/A   Mostly Cloudy
5:50 AM 8.6 °F -2.6 °F -0.4 °F 67% 29.98 in 6.2 mi WNW 6.9 mph - N/A   Overcast
6:00 AM 9 °F - -1 °F 51% 29.99 in 31 mi WNW 2.2 mph - -  
6:20 AM 12.2 °F 1.7 °F 1.4 °F 62% 29.98 in 6.2 mi WNW 6.9 mph - N/A   Overcast
6:50 AM 12.2 °F 6.1 °F 1.4 °F 62% 29.95 in 6.2 mi WNW 3.5 mph - N/A   Overcast
7:00 AM 11 °F - 0 °F 48% 29.98 in 28 mi WNW 4.5 mph - -  
7:20 AM 12.2 °F 6.1 °F 1.4 °F 62% 29.95 in 6.2 mi WNW 3.5 mph - N/A   Mostly Cloudy
7:50 AM 14.0 °F 5.1 °F 3.2 °F 62% 29.95 in - WNW 5.8 mph - N/A   Clear
8:00 AM 14 °F - 3 °F 46% 29.96 in 28 mi WNW 4.5 mph - -  
8:20 AM 15.8 °F 6.1 °F 5.0 °F 62% 29.92 in - WNW 6.9 mph - N/A   Clear
8:50 AM 17.6 °F 8.2 °F 6.8 °F 63% 29.92 in - WNW 6.9 mph - N/A   Clear
9:00 AM 18 °F - 7 °F 48% 29.94 in 28 mi NW 6.7 mph - -  
9:20 AM 19.4 °F 9.5 °F 8.6 °F 63% 29.92 in 6.2 mi WNW 8.1 mph - N/A   Partly Cloudy
9:50 AM 19.4 °F 9.5 °F 10.4 °F 68% 29.92 in - WNW 8.1 mph - N/A   Clear
10:20 AM 21.2 °F 11.7 °F 10.4 °F 63% 29.92 in - NW 8.1 mph - N/A   Clear
10:50 AM 23.0 °F 14.7 °F 12.2 °F 63% 29.89 in - NW 6.9 mph - N/A   Clear
11:00 AM 22 °F - 11 °F 50% 29.92 in 25 mi NNW 6.7 mph - -  
11:20 AM 23.0 °F 12.4 °F 12.2 °F 63% 29.89 in 6.2 mi NW 10.4 mph - N/A   Partly Cloudy
11:50 AM 24.8 °F 13.4 °F 14.0 °F 64% 29.89 in - NW 12.7 mph - N/A   Clear
12:00 PM 24 °F - 13 °F 52% 29.90 in 28 mi NW 13.4 mph - -  
12:20 PM 26.6 °F 16.2 °F 15.8 °F 64% 29.89 in - NW 11.5 mph - N/A   Clear
12:50 PM 28.4 °F 19.1 °F 15.8 °F 59% 29.86 in - NW 10.4 mph - N/A   Clear
1:00 PM 27 °F - 15 °F 48% 29.88 in 28 mi NW 8.9 mph - -  
1:20 PM 28.4 °F 20.4 °F 15.8 °F 59% 29.86 in - NW 8.1 mph - N/A   Clear
1:50 PM 26.6 °F 16.2 °F 15.8 °F 64% 29.86 in - NW 11.5 mph - N/A   Clear
2:00 PM 28 °F - 16 °F 47% 29.87 in 28 mi NW 11.2 mph - -  
2:20 PM 28.4 °F 19.1 °F 17.6 °F 64% 29.86 in - WNW 10.4 mph - N/A   Clear
2:50 PM 28.4 °F 20.4 °F 17.6 °F 64% 29.86 in - WNW 8.1 mph - N/A   Clear
3:00 PM 29 °F - 16 °F 45% 29.86 in 28 mi WNW 8.9 mph - -  
3:20 PM 28.4 °F 19.7 °F 17.6 °F 64% 29.83 in 6.2 mi WNW 9.2 mph - N/A   Scattered Clouds
3:50 PM 28.4 °F 19.7 °F 19.4 °F 69% 29.83 in - WNW 9.2 mph - N/A   Clear
4:20 PM 28.4 °F 22.2 °F 19.4 °F 69% 29.83 in - West 5.8 mph - N/A   Clear
4:50 PM 28.4 °F 21.2 °F 19.4 °F 69% 29.83 in - WNW 6.9 mph - N/A   Clear
5:00 PM 25 °F - 18 °F 66% 29.84 in 31 mi NNW 6.7 mph - -  
5:20 PM 26.6 °F 17.5 °F 19.4 °F 74% 29.83 in 6.2 mi WNW 9.2 mph - N/A   Mostly Cloudy
5:50 PM 28.4 °F 19.1 °F 23.0 °F 80% 29.80 in 6.2 mi WNW 10.4 mph - N/A Snow Light Snow
6:00 PM 26 °F - 22 °F 80% 29.82 in 19 mi West 8.9 mph - -   Unknown Precipitation
6:20 PM 26.6 °F 17.5 °F 23.0 °F 86% 29.80 in 6.2 mi NW 9.2 mph - N/A   Scattered Clouds
6:50 PM 24.8 °F 14.6 °F 23.0 °F 93% 29.80 in - NW 10.4 mph - N/A   Clear
7:00 PM 25 °F - 22 °F 83% 29.82 in 31 mi NW 8.9 mph - -   Unknown Precipitation
7:20 PM 24.8 °F 15.3 °F 21.2 °F 86% 29.80 in 6.2 mi NW 9.2 mph - N/A   Partly Cloudy
7:50 PM 24.8 °F 16.9 °F 21.2 °F 86% 29.83 in 6.2 mi NNE 6.9 mph - N/A   Mostly Cloudy
8:00 PM 24 °F - 20 °F 80% 29.84 in 28 mi NNE 4.5 mph - -   Unknown Precipitation
8:20 PM 24.8 °F 19.1 °F 21.2 °F 86% 29.83 in 6.2 mi North 4.6 mph - N/A   Mostly Cloudy
8:50 PM 24.8 °F 19.1 °F 19.4 °F 80% 29.83 in 6.2 mi North 4.6 mph - N/A   Overcast
9:00 PM 23 °F - 19 °F 78% 29.84 in 28 mi North 4.5 mph - -   Clear
9:20 PM 23.0 °F 17.0 °F 19.4 °F 86% 29.83 in - NNW 4.6 mph - N/A   Clear
9:50 PM 19.4 °F 10.4 °F 17.6 °F 93% 29.83 in - NW 6.9 mph - N/A   Clear
10:20 PM 21.2 °F 12.6 °F 17.6 °F 86% 29.83 in - WNW 6.9 mph - N/A   Clear
10:50 PM 19.4 °F 9.5 °F 15.8 °F 86% 29.83 in - NW 8.1 mph - N/A   Clear
11:00 PM 20 °F - 16 °F 78% 29.86 in 31 mi NW 8.9 mph - -   Clear
11:20 PM 19.4 °F 10.4 °F 15.8 °F 86% 29.83 in - NW 6.9 mph - N/A   Clear
11:50 PM 19.4 °F 11.5 °F 14.0 °F 80% 29.83 in - NW 5.8 mph - N/A   Clear